Time,TemperatureF,DewpointF,PressureIn,WindDirection,WindDirectionDegrees,WindSpeedMPH,WindSpeedGustMPH,Humidity,HourlyPrecipIn,Conditions,Clouds,dailyrainin,SoftwareType,DateUTC
2013-08-08 00:00:00,67.7,64.0,29.94,SSE,158,2.0,5.0,88,0.00,,,0.00,Wunderground v.1.15,2013-08-08 05:00:00,
2013-08-08 00:10:00,67.8,64.1,29.94,SSE,158,0.0,5.0,88,0.00,,,0.00,Wunderground v.1.15,2013-08-08 05:10:00,
2013-08-08 00:20:00,67.8,64.1,29.94,SSE,158,0.0,5.0,88,0.00,,,0.00,Wunderground v.1.15,2013-08-08 05:20:00,
2013-08-08 00:25:00,67.8,64.1,29.95,SSE,158,0.0,5.0,88,0.00,,,0.00,Wunderground v.1.15,2013-08-08 05:25:00,
2013-08-08 00:35:00,67.7,64.0,29.95,SSE,158,0.0,5.0,88,0.00,,,0.00,Wunderground v.1.15,2013-08-08 05:35:00,
2013-08-08 00:40:00,67.6,63.9,29.95,SSE,158,0.0,5.0,88,0.00,,,0.00,Wunderground v.1.15,2013-08-08 05:40:00,
2013-08-08 00:50:00,67.6,63.9,29.95,SSE,158,0.0,5.0,88,0.00,,,0.00,Wunderground v.1.15,2013-08-08 05:50:00,
2013-08-08 01:00:00,67.4,63.7,29.95,SSE,158,0.0,5.0,88,0.00,,,0.00,Wunderground v.1.15,2013-08-08 06:00:00,
2013-08-08 01:10:00,67.2,63.5,29.95,SSE,158,0.0,5.0,88,0.00,,,0.00,Wunderground v.1.15,2013-08-08 06:10:00,
2013-08-08 01:20:00,67.2,63.5,29.95,SSE,158,0.0,5.0,88,0.00,,,0.00,Wunderground v.1.15,2013-08-08 06:20:00,
2013-08-08 01:25:00,67.1,63.7,29.94,SSE,158,0.0,5.0,89,0.00,,,0.00,Wunderground v.1.15,2013-08-08 06:25:00,
2013-08-08 01:35:00,67.2,63.8,29.94,SSE,158,1.0,5.0,89,0.00,,,0.00,Wunderground v.1.15,2013-08-08 06:35:00,
2013-08-08 01:40:00,67.1,63.7,29.94,SSE,158,0.0,5.0,89,0.00,,,0.00,Wunderground v.1.15,2013-08-08 06:40:00,
2013-08-08 01:50:00,67.1,63.7,29.94,SSE,158,0.0,5.0,89,0.00,,,0.00,Wunderground v.1.15,2013-08-08 06:50:00,
2013-08-08 02:00:00,67.1,63.7,29.93,SSE,158,0.0,5.0,89,0.00,,,0.00,Wunderground v.1.15,2013-08-08 07:00:00,
2013-08-08 02:10:00,66.9,63.6,29.93,SSE,158,0.0,5.0,89,0.00,,,0.00,Wunderground v.1.15,2013-08-08 07:10:00,
2013-08-08 02:15:00,66.9,63.6,29.93,SSE,158,0.0,5.0,89,0.00,,,0.00,Wunderground v.1.15,2013-08-08 07:15:00,
2013-08-08 02:25:00,66.7,63.4,29.94,SSE,164,2.0,5.0,89,0.00,,,0.00,Wunderground v.1.15,2013-08-08 07:25:00,
2013-08-08 02:30:00,66.7,63.4,29.94,SSE,165,3.0,3.0,89,0.00,,,0.00,Wunderground v.1.15,2013-08-08 07:30:00,
2013-08-08 02:40:00,66.7,63.4,29.94,SSE,165,0.0,5.0,89,0.00,,,0.00,Wunderground v.1.15,2013-08-08 07:40:00,
2013-08-08 02:50:00,66.6,63.3,29.94,SSE,165,0.0,5.0,89,0.00,,,0.00,Wunderground v.1.15,2013-08-08 07:50:00,
2013-08-08 02:55:00,66.6,63.3,29.94,SSE,165,0.0,5.0,89,0.00,,,0.00,Wunderground v.1.15,2013-08-08 07:55:00,
2013-08-08 03:00:00,66.6,63.3,29.93,SSE,165,0.0,5.0,89,0.00,,,0.00,Wunderground v.1.15,2013-08-08 08:00:00,
2013-08-08 03:10:00,66.5,63.2,29.93,SSE,165,0.0,5.0,89,0.00,,,0.00,Wunderground v.1.15,2013-08-08 08:10:00,
2013-08-08 03:20:00,66.3,63.0,29.93,South,174,2.0,5.0,89,0.00,,,0.01,Wunderground v.1.15,2013-08-08 08:20:00,
2013-08-08 03:25:00,66.3,63.0,29.93,SSE,148,2.0,5.0,89,0.00,,,0.01,Wunderground v.1.15,2013-08-08 08:25:00,
2013-08-08 03:30:00,66.3,63.3,29.92,South,169,2.0,2.0,90,0.00,,,0.01,Wunderground v.1.15,2013-08-08 08:30:00,
2013-08-08 03:40:00,66.2,63.2,29.92,South,171,2.0,5.0,90,0.00,,,0.01,Wunderground v.1.15,2013-08-08 08:40:00,
2013-08-08 03:50:00,66.2,63.2,29.92,South,171,1.0,1.0,90,0.00,,,0.01,Wunderground v.1.15,2013-08-08 08:50:00,
2013-08-08 04:00:00,65.9,62.6,29.92,South,171,0.0,5.0,89,0.00,,,0.01,Wunderground v.1.15,2013-08-08 09:00:00,
2013-08-08 04:10:00,65.6,62.3,29.91,South,171,2.0,2.0,89,0.00,,,0.01,Wunderground v.1.15,2013-08-08 09:10:00,
2013-08-08 04:15:00,65.4,62.1,29.91,South,171,1.0,5.0,89,0.00,,,0.01,Wunderground v.1.15,2013-08-08 09:15:00,
2013-08-08 04:20:00,65.3,62.0,29.91,South,171,1.0,1.0,89,0.00,,,0.01,Wunderground v.1.15,2013-08-08 09:20:00,
2013-08-08 04:30:00,65.0,62.0,29.91,South,171,1.0,1.0,90,0.00,,,0.01,Wunderground v.1.15,2013-08-08 09:30:00,
2013-08-08 04:40:00,64.9,61.9,29.91,South,171,0.0,5.0,90,0.00,,,0.01,Wunderground v.1.15,2013-08-08 09:40:00,
2013-08-08 04:50:00,65.0,62.0,29.91,South,171,2.0,5.0,90,0.00,,,0.01,Wunderground v.1.15,2013-08-08 09:50:00,
2013-08-08 05:00:00,64.6,61.3,29.91,South,171,0.0,5.0,89,0.00,,,0.01,Wunderground v.1.15,2013-08-08 10:00:00,
2013-08-08 05:10:00,64.4,61.4,29.91,South,171,1.0,5.0,90,0.00,,,0.01,Wunderground v.1.15,2013-08-08 10:10:00,
2013-08-08 05:15:00,64.2,61.2,29.91,South,171,1.0,5.0,90,0.00,,,0.01,Wunderground v.1.15,2013-08-08 10:15:00,
2013-08-08 05:20:00,64.2,61.2,29.91,South,171,1.0,5.0,90,0.00,,,0.01,Wunderground v.1.15,2013-08-08 10:20:00,
2013-08-08 05:30:00,64.0,61.0,29.91,South,171,1.0,1.0,90,0.00,,,0.01,Wunderground v.1.15,2013-08-08 10:30:00,
2013-08-08 05:40:00,64.1,61.1,29.91,South,171,1.0,5.0,90,0.00,,,0.01,Wunderground v.1.15,2013-08-08 10:40:00,
2013-08-08 05:50:00,64.1,61.1,29.91,South,171,0.0,5.0,90,0.00,,,0.01,Wunderground v.1.15,2013-08-08 10:50:00,
2013-08-08 05:55:00,64.0,61.0,29.92,South,171,0.0,5.0,90,0.00,,,0.01,Wunderground v.1.15,2013-08-08 10:55:00,
2013-08-08 06:05:00,64.0,61.0,29.92,South,171,0.0,4.0,90,0.00,,,0.01,Wunderground v.1.15,2013-08-08 11:05:00,
2013-08-08 06:10:00,64.1,61.1,29.92,South,171,0.0,4.0,90,0.00,,,0.01,Wunderground v.1.15,2013-08-08 11:10:00,
2013-08-08 06:20:00,64.2,61.5,29.92,South,171,1.0,1.0,91,0.00,,,0.01,Wunderground v.1.15,2013-08-08 11:20:00,
2013-08-08 06:30:00,64.3,61.6,29.92,SSE,151,0.0,4.0,91,0.00,,,0.01,Wunderground v.1.15,2013-08-08 11:30:00,
2013-08-08 06:35:00,64.3,61.6,29.92,SSE,151,0.0,4.0,91,0.00,,,0.01,Wunderground v.1.15,2013-08-08 11:35:00,
2013-08-08 06:45:00,64.2,61.5,29.92,SSE,151,0.0,4.0,91,0.00,,,0.01,Wunderground v.1.15,2013-08-08 11:45:00,
2013-08-08 06:50:00,64.3,61.6,29.92,SSE,151,0.0,4.0,91,0.00,,,0.01,Wunderground v.1.15,2013-08-08 11:50:00,
2013-08-08 07:00:00,64.3,61.6,29.92,SSE,151,0.0,4.0,91,0.00,,,0.01,Wunderground v.1.15,2013-08-08 12:00:00,
2013-08-08 07:10:00,64.4,61.7,29.93,SSE,151,0.0,4.0,91,0.00,,,0.01,Wunderground v.1.15,2013-08-08 12:10:00,
2013-08-08 07:20:00,64.4,61.7,29.93,SSE,151,0.0,4.0,91,0.00,,,0.01,Wunderground v.1.15,2013-08-08 12:20:00,
2013-08-08 07:25:00,64.4,61.7,29.93,South,169,1.0,4.0,91,0.00,,,0.01,Wunderground v.1.15,2013-08-08 12:25:00,
2013-08-08 07:30:00,64.5,61.8,29.94,South,169,3.0,3.0,91,0.00,,,0.01,Wunderground v.1.15,2013-08-08 12:30:00,
2013-08-08 07:40:00,64.6,61.9,29.94,South,169,2.0,4.0,91,0.00,,,0.01,Wunderground v.1.15,2013-08-08 12:40:00,
2013-08-08 07:50:00,64.7,62.0,29.94,SSW,196,4.0,4.0,91,0.00,,,0.01,Wunderground v.1.15,2013-08-08 12:50:00,
2013-08-08 08:00:00,64.8,62.1,29.95,SSW,196,2.0,4.0,91,0.00,,,0.02,Wunderground v.1.15,2013-08-08 13:00:00,
2013-08-08 08:10:00,64.9,62.2,29.95,SSW,196,1.0,1.0,91,0.00,,,0.02,Wunderground v.1.15,2013-08-08 13:10:00,
2013-08-08 08:15:00,65.0,62.3,29.95,SSW,196,1.0,4.0,91,0.00,,,0.02,Wunderground v.1.15,2013-08-08 13:15:00,
2013-08-08 08:20:00,65.0,62.3,29.95,SSW,196,1.0,1.0,91,0.00,,,0.02,Wunderground v.1.15,2013-08-08 13:20:00,
2013-08-08 08:30:00,65.3,62.6,29.95,SSW,196,1.0,1.0,91,0.00,,,0.02,Wunderground v.1.15,2013-08-08 13:30:00,
2013-08-08 08:40:00,65.6,62.9,29.96,South,191,2.0,4.0,91,0.00,,,0.02,Wunderground v.1.15,2013-08-08 13:40:00,
2013-08-08 08:50:00,65.9,63.2,29.97,SSW,194,3.0,3.0,91,0.00,,,0.02,Wunderground v.1.15,2013-08-08 13:50:00,
2013-08-08 09:00:00,66.0,63.3,29.97,SSW,197,2.0,2.0,91,0.00,,,0.02,Wunderground v.1.15,2013-08-08 14:00:00,
2013-08-08 09:10:00,66.1,63.1,29.97,SSW,194,2.0,4.0,90,0.00,,,0.02,Wunderground v.1.15,2013-08-08 14:10:00,
2013-08-08 09:15:00,66.3,63.6,29.96,South,184,3.0,5.0,91,0.00,,,0.02,Wunderground v.1.15,2013-08-08 14:15:00,
2013-08-08 09:25:00,66.5,63.5,29.96,South,189,4.0,4.0,90,0.00,,,0.02,Wunderground v.1.15,2013-08-08 14:25:00,
2013-08-08 09:30:00,66.6,63.6,29.97,South,190,4.0,4.0,90,0.00,,,0.02,Wunderground v.1.15,2013-08-08 14:30:00,
2013-08-08 09:40:00,66.7,63.7,29.97,SSW,200,4.0,4.0,90,0.00,,,0.02,Wunderground v.1.15,2013-08-08 14:40:00,
2013-08-08 09:50:00,66.7,63.7,29.96,SSW,194,4.0,4.0,90,0.00,,,0.02,Wunderground v.1.15,2013-08-08 14:50:00,
2013-08-08 10:00:00,67.0,64.0,29.96,South,190,4.0,4.0,90,0.00,,,0.02,Wunderground v.1.15,2013-08-08 15:00:00,
2013-08-08 10:05:00,67.2,64.2,29.97,SSW,194,3.0,4.0,90,0.00,,,0.02,Wunderground v.1.15,2013-08-08 15:05:00,
2013-08-08 10:15:00,67.8,64.8,29.97,SSW,194,3.0,4.0,90,0.00,,,0.02,Wunderground v.1.15,2013-08-08 15:15:00,
2013-08-08 10:20:00,68.1,64.7,29.97,SSW,195,4.0,4.0,89,0.00,,,0.02,Wunderground v.1.15,2013-08-08 15:20:00,
2013-08-08 10:30:00,68.8,65.4,29.97,South,187,4.0,5.0,89,0.00,,,0.02,Wunderground v.1.15,2013-08-08 15:30:00,
2013-08-08 10:40:00,69.3,65.6,29.97,South,186,5.0,5.0,88,0.00,,,0.02,Wunderground v.1.15,2013-08-08 15:40:00,
2013-08-08 10:50:00,69.6,65.6,29.98,SSW,195,4.0,5.0,87,0.00,,,0.02,Wunderground v.1.15,2013-08-08 15:50:00,
2013-08-08 10:55:00,69.6,65.2,29.98,SSW,193,4.0,6.0,86,0.00,,,0.02,Wunderground v.1.15,2013-08-08 15:55:00,
2013-08-08 11:05:00,69.5,64.8,29.98,SW,214,4.0,4.0,85,0.00,,,0.02,Wunderground v.1.15,2013-08-08 16:05:00,
2013-08-08 11:10:00,69.6,64.9,29.98,SW,214,4.0,4.0,85,0.00,,,0.02,Wunderground v.1.15,2013-08-08 16:10:00,
2013-08-08 11:20:00,69.7,65.0,29.99,SW,214,2.0,4.0,85,0.00,,,0.02,Wunderground v.1.15,2013-08-08 16:20:00,
2013-08-08 11:30:00,70.1,65.4,29.99,SW,214,1.0,1.0,85,0.00,,,0.02,Wunderground v.1.15,2013-08-08 16:30:00,
2013-08-08 11:40:00,70.3,65.2,29.99,SW,214,0.0,4.0,84,0.00,,,0.02,Wunderground v.1.15,2013-08-08 16:40:00,
2013-08-08 11:50:00,70.8,65.7,29.99,SW,214,1.0,4.0,84,0.00,,,0.02,Wunderground v.1.15,2013-08-08 16:50:00,
2013-08-08 11:55:00,71.0,65.9,29.99,SW,214,2.0,4.0,84,0.00,,,0.02,Wunderground v.1.15,2013-08-08 16:55:00,
2013-08-08 12:05:00,71.6,66.2,29.99,SW,217,4.0,8.0,83,0.00,,,0.02,Wunderground v.1.15,2013-08-08 17:05:00,
2013-08-08 12:15:00,72.2,66.0,29.99,SW,226,6.0,8.0,81,0.00,,,0.02,Wunderground v.1.15,2013-08-08 17:15:00,
2013-08-08 12:20:00,72.3,65.8,29.98,SW,229,7.0,9.0,80,0.00,,,0.02,Wunderground v.1.15,2013-08-08 17:20:00,
2013-08-08 12:30:00,72.4,65.9,29.98,SW,217,8.0,13.0,80,0.00,,,0.02,Wunderground v.1.15,2013-08-08 17:30:00,
2013-08-08 12:40:00,71.5,64.6,29.98,WSW,243,8.0,8.0,79,0.00,,,0.02,Wunderground v.1.15,2013-08-08 17:40:00,
2013-08-08 12:50:00,71.6,65.1,29.97,SW,217,5.0,8.0,80,0.00,,,0.02,Wunderground v.1.15,2013-08-08 17:50:00,
2013-08-08 12:55:00,71.5,64.6,29.97,SW,217,5.0,8.0,79,0.00,,,0.02,Wunderground v.1.15,2013-08-08 17:55:00,
2013-08-08 13:00:00,71.5,63.9,29.98,SW,226,5.0,8.0,77,0.00,,,0.02,Wunderground v.1.15,2013-08-08 18:00:00,
2013-08-08 13:10:00,71.8,64.9,29.97,SSW,202,4.0,4.0,79,0.00,,,0.02,Wunderground v.1.15,2013-08-08 18:10:00,
2013-08-08 13:20:00,71.6,64.4,29.97,SW,214,4.0,8.0,78,0.00,,,0.02,Wunderground v.1.15,2013-08-08 18:20:00,
2013-08-08 13:30:00,71.5,64.6,29.97,SSW,211,5.0,5.0,79,0.00,,,0.02,Wunderground v.1.15,2013-08-08 18:30:00,
2013-08-08 13:40:00,71.9,65.4,29.97,SW,214,4.0,4.0,80,0.00,,,0.02,Wunderground v.1.15,2013-08-08 18:40:00,
2013-08-08 13:45:00,72.1,65.2,29.97,SSW,194,4.0,8.0,79,0.00,,,0.02,Wunderground v.1.15,2013-08-08 18:45:00,
2013-08-08 13:50:00,72.2,65.0,29.97,SSW,196,4.0,4.0,78,0.00,,,0.02,Wunderground v.1.15,2013-08-08 18:50:00,
2013-08-08 14:00:00,72.4,65.5,29.97,SSW,211,4.0,8.0,79,0.00,,,0.02,Wunderground v.1.15,2013-08-08 19:00:00,
2013-08-08 14:10:00,72.3,65.8,29.97,SSW,213,4.0,8.0,80,0.00,,,0.02,Wunderground v.1.15,2013-08-08 19:10:00,
2013-08-08 14:20:00,72.6,66.8,29.97,SSW,201,4.0,8.0,82,0.00,,,0.02,Wunderground v.1.15,2013-08-08 19:20:00,
2013-08-08 14:25:00,72.8,67.0,29.97,SSW,213,4.0,8.0,82,0.00,,,0.02,Wunderground v.1.15,2013-08-08 19:25:00,
2013-08-08 14:35:00,72.9,66.4,29.97,SSW,212,5.0,8.0,80,0.00,,,0.02,Wunderground v.1.15,2013-08-08 19:35:00,
2013-08-08 14:40:00,73.1,66.6,29.97,SW,219,5.0,8.0,80,0.00,,,0.02,Wunderground v.1.15,2013-08-08 19:40:00,
2013-08-08 14:50:00,73.8,66.9,29.97,SW,225,5.0,8.0,79,0.00,,,0.02,Wunderground v.1.15,2013-08-08 19:50:00,
2013-08-08 15:00:00,73.9,66.2,29.97,SSW,195,6.0,6.0,77,0.00,,,0.02,Wunderground v.1.15,2013-08-08 20:00:00,
2013-08-08 15:10:00,74.0,66.0,29.97,SSW,202,5.0,5.0,76,0.00,,,0.02,Wunderground v.1.15,2013-08-08 20:10:00,
2013-08-08 15:20:00,74.2,66.5,29.97,SSW,206,5.0,5.0,77,0.00,,,0.02,Wunderground v.1.15,2013-08-08 20:20:00,
2013-08-08 15:25:00,74.2,66.1,29.97,South,190,5.0,6.0,76,0.00,,,0.02,Wunderground v.1.15,2013-08-08 20:25:00,
2013-08-08 15:35:00,74.2,65.8,29.96,South,181,5.0,8.0,75,0.00,,,0.02,Wunderground v.1.15,2013-08-08 20:35:00,
2013-08-08 15:40:00,74.0,65.6,29.96,SSW,207,5.0,8.0,75,0.00,,,0.02,Wunderground v.1.15,2013-08-08 20:40:00,
2013-08-08 15:50:00,74.1,66.0,29.96,SSW,203,6.0,6.0,76,0.00,,,0.02,Wunderground v.1.15,2013-08-08 20:50:00,
2013-08-08 16:00:00,74.8,65.6,29.97,South,175,6.0,8.0,73,0.00,,,0.02,Wunderground v.1.15,2013-08-08 21:00:00,
2013-08-08 16:10:00,74.1,63.7,29.96,SSW,198,6.0,6.0,70,0.00,,,0.02,Wunderground v.1.15,2013-08-08 21:10:00,
2013-08-08 16:20:00,73.6,64.4,29.96,SSW,213,5.0,5.0,73,0.00,,,0.02,Wunderground v.1.15,2013-08-08 21:20:00,
2013-08-08 16:25:00,73.2,64.0,29.96,SSW,199,5.0,6.0,73,0.00,,,0.02,Wunderground v.1.15,2013-08-08 21:25:00,
2013-08-08 16:30:00,73.2,64.0,29.96,South,171,5.0,8.0,73,0.00,,,0.02,Wunderground v.1.15,2013-08-08 21:30:00,
2013-08-08 16:40:00,73.9,65.1,29.95,South,177,3.0,3.0,74,0.00,,,0.02,Wunderground v.1.15,2013-08-08 21:40:00,
2013-08-08 16:50:00,75.2,65.1,29.96,SSE,165,4.0,4.0,71,0.00,,,0.02,Wunderground v.1.15,2013-08-08 21:50:00,
2013-08-08 17:00:00,76.1,64.8,29.96,South,179,5.0,8.0,68,0.00,,,0.02,Wunderground v.1.15,2013-08-08 22:00:00,
2013-08-08 17:10:00,76.3,64.1,29.95,SSW,194,5.0,5.0,66,0.00,,,0.02,Wunderground v.1.15,2013-08-08 22:10:00,
2013-08-08 17:15:00,76.9,66.0,29.95,SSW,206,5.0,8.0,69,0.00,,,0.02,Wunderground v.1.15,2013-08-08 22:15:00,
2013-08-08 17:25:00,76.3,65.4,29.95,South,170,5.0,8.0,69,0.00,,,0.02,Wunderground v.1.15,2013-08-08 22:25:00,
2013-08-08 17:35:00,76.3,65.0,29.95,SSW,198,4.0,5.0,68,0.00,,,0.02,Wunderground v.1.15,2013-08-08 22:35:00,
2013-08-08 17:40:00,76.6,65.2,29.95,SSW,206,5.0,5.0,68,0.00,,,0.02,Wunderground v.1.15,2013-08-08 22:40:00,
2013-08-08 17:45:00,76.7,64.9,29.95,SSW,198,4.0,8.0,67,0.00,,,0.02,Wunderground v.1.15,2013-08-08 22:45:00,
2013-08-08 17:55:00,76.1,66.4,29.95,SSW,202,4.0,8.0,72,0.00,,,0.02,Wunderground v.1.15,2013-08-08 22:55:00,
2013-08-08 18:00:00,76.4,65.5,29.95,SSW,202,4.0,4.0,69,0.00,,,0.02,Wunderground v.1.15,2013-08-08 23:00:00,
2013-08-08 18:10:00,77.1,65.3,29.94,South,180,4.0,10.0,67,0.00,,,0.02,Wunderground v.1.15,2013-08-08 23:10:00,
2013-08-08 18:20:00,77.2,64.1,29.94,SSW,213,6.0,10.0,64,0.00,,,0.02,Wunderground v.1.15,2013-08-08 23:20:00,
2013-08-08 18:25:00,77.1,64.9,29.94,SSW,206,7.0,10.0,66,0.00,,,0.02,Wunderground v.1.15,2013-08-08 23:25:00,
2013-08-08 18:35:00,76.8,63.7,29.94,SSW,213,6.0,10.0,64,0.00,,,0.02,Wunderground v.1.15,2013-08-08 23:35:00,
2013-08-08 18:40:00,75.9,62.8,29.94,SSW,202,6.0,6.0,64,0.00,,,0.02,Wunderground v.1.15,2013-08-08 23:40:00,
2013-08-08 18:50:00,75.8,63.6,29.94,SSW,203,5.0,5.0,66,0.00,,,0.02,Wunderground v.1.15,2013-08-08 23:50:00,
2013-08-08 18:55:00,74.9,62.3,29.94,SSW,205,5.0,7.0,65,0.00,,,0.02,Wunderground v.1.15,2013-08-08 23:55:00,
2013-08-08 19:05:00,73.7,62.1,29.94,SSW,203,6.0,10.0,67,0.00,,,0.02,Wunderground v.1.15,2013-08-09 00:05:00,
2013-08-08 19:10:00,73.7,62.9,29.94,SSW,201,5.0,5.0,69,0.00,,,0.02,Wunderground v.1.15,2013-08-09 00:10:00,
2013-08-08 19:20:00,74.0,63.2,29.94,SSW,205,4.0,4.0,69,0.00,,,0.02,Wunderground v.1.15,2013-08-09 00:20:00,
2013-08-08 19:30:00,73.4,63.0,29.94,South,187,2.0,10.0,70,0.00,,,0.02,Wunderground v.1.15,2013-08-09 00:30:00,
2013-08-08 19:40:00,73.1,63.1,29.94,South,187,2.0,2.0,71,0.00,,,0.02,Wunderground v.1.15,2013-08-09 00:40:00,
2013-08-08 19:50:00,72.5,62.6,29.94,SSE,167,2.0,10.0,71,0.00,,,0.02,Wunderground v.1.15,2013-08-09 00:50:00,
2013-08-08 20:00:00,72.0,62.5,29.95,South,169,1.0,1.0,72,0.00,,,0.02,Wunderground v.1.15,2013-08-09 01:00:00,
2013-08-08 20:10:00,71.5,62.4,29.95,South,169,0.0,10.0,73,0.00,,,0.02,Wunderground v.1.15,2013-08-09 01:10:00,
2013-08-08 20:15:00,71.3,62.6,29.95,South,169,1.0,10.0,74,0.00,,,0.02,Wunderground v.1.15,2013-08-09 01:15:00,
2013-08-08 20:25:00,70.8,61.7,29.95,South,169,2.0,10.0,73,0.00,,,0.02,Wunderground v.1.15,2013-08-09 01:25:00,
2013-08-08 20:35:00,70.4,61.7,29.95,South,171,2.0,10.0,74,0.00,,,0.02,Wunderground v.1.15,2013-08-09 01:35:00,
2013-08-08 20:45:00,69.8,61.1,29.95,South,175,2.0,10.0,74,0.00,,,0.02,Wunderground v.1.15,2013-08-09 01:45:00,
2013-08-08 20:50:00,69.6,61.3,29.96,South,175,1.0,10.0,75,0.00,,,0.02,Wunderground v.1.15,2013-08-09 01:50:00,
2013-08-08 21:00:00,68.9,61.4,29.96,South,175,1.0,1.0,77,0.00,,,0.02,Wunderground v.1.15,2013-08-09 02:00:00,
2013-08-08 21:10:00,68.5,61.4,29.96,South,175,0.0,10.0,78,0.00,,,0.02,Wunderground v.1.15,2013-08-09 02:10:00,
2013-08-08 21:20:00,68.0,61.2,29.96,South,175,0.0,10.0,79,0.00,,,0.02,Wunderground v.1.15,2013-08-09 02:20:00,
2013-08-08 21:25:00,67.7,61.0,29.96,South,175,0.0,10.0,79,0.00,,,0.02,Wunderground v.1.15,2013-08-09 02:25:00,
2013-08-08 21:30:00,67.6,61.2,29.96,South,175,0.0,10.0,80,0.00,,,0.02,Wunderground v.1.15,2013-08-09 02:30:00,
2013-08-08 21:45:00,67.1,61.1,29.97,South,175,0.0,10.0,81,0.00,,,0.02,Wunderground v.1.15,2013-08-09 02:45:00,
2013-08-08 21:50:00,67.0,61.0,29.97,South,175,0.0,10.0,81,0.00,,,0.02,Wunderground v.1.15,2013-08-09 02:50:00,
2013-08-08 22:00:00,66.7,61.0,29.97,South,175,0.0,10.0,82,0.00,,,0.02,Wunderground v.1.15,2013-08-09 03:00:00,
2013-08-08 22:10:00,66.4,61.1,29.97,South,175,0.0,10.0,83,0.00,,,0.02,Wunderground v.1.15,2013-08-09 03:10:00,
2013-08-08 22:15:00,66.2,60.9,29.97,South,175,0.0,10.0,83,0.00,,,0.02,Wunderground v.1.15,2013-08-09 03:15:00,
2013-08-08 22:25:00,66.0,60.7,29.98,South,175,0.0,10.0,83,0.00,,,0.02,Wunderground v.1.15,2013-08-09 03:25:00,
2013-08-08 22:30:00,65.9,60.9,29.97,South,175,0.0,10.0,84,0.00,,,0.02,Wunderground v.1.15,2013-08-09 03:30:00,
2013-08-08 22:40:00,65.5,60.5,29.97,South,175,0.0,10.0,84,0.00,,,0.02,Wunderground v.1.15,2013-08-09 03:40:00,
2013-08-08 22:50:00,65.2,60.6,29.98,South,175,0.0,10.0,85,0.00,,,0.02,Wunderground v.1.15,2013-08-09 03:50:00,
2013-08-08 23:00:00,64.7,60.1,29.98,South,175,0.0,10.0,85,0.00,,,0.02,Wunderground v.1.15,2013-08-09 04:00:00,
2013-08-08 23:05:00,64.4,59.8,29.98,South,175,0.0,10.0,85,0.00,,,0.02,Wunderground v.1.15,2013-08-09 04:05:00,
2013-08-08 23:10:00,64.3,59.7,29.98,South,175,0.0,10.0,85,0.00,,,0.02,Wunderground v.1.15,2013-08-09 04:10:00,
2013-08-08 23:15:00,64.1,59.8,29.98,South,175,0.0,10.0,86,0.00,,,0.02,Wunderground v.1.15,2013-08-09 04:15:00,
2013-08-08 23:20:00,64.1,59.8,29.98,South,175,0.0,10.0,86,0.00,,,0.02,Wunderground v.1.15,2013-08-09 04:20:00,
2013-08-08 23:25:00,64.2,59.9,29.98,South,175,0.0,10.0,86,0.00,,,0.02,Wunderground v.1.15,2013-08-09 04:25:00,
2013-08-08 23:30:00,64.4,60.4,29.98,South,175,0.0,10.0,87,0.00,,,0.02,Wunderground v.1.15,2013-08-09 04:30:00,
2013-08-08 23:40:00,64.0,59.7,29.98,South,181,2.0,2.0,86,0.00,,,0.02,Wunderground v.1.15,2013-08-09 04:40:00,
2013-08-08 23:50:00,63.4,59.1,29.98,South,181,2.0,2.0,86,0.00,,,0.02,Wunderground v.1.15,2013-08-09 04:50:00,
2013-08-08 23:55:00,63.0,58.7,29.99,South,181,1.0,10.0,86,0.00,,,0.02,Wunderground v.1.15,2013-08-09 04:55:00,